I5NOD Altopascio Lu IT current weather conditions

sailwx.info

Wind from 168

Air temperature 18.3° C
Dewpoint 5.5° C

Last reported at 2019-Sep-16 22:05 UTC.
Time now 2019-Sep-16 22:25 UTC

Location: N 43°49' E 010°41'.
View on Google Maps.

See reports from other nearby stations

  
Tides and Currents Weather Stations Pressure Air Temp Water Temp Dewpoint Dewpoint Depression Visibility Wind Speed Wind Dir Waves Ship Positions
date/time (UTC)wind fromknots sea level pressurealtimeterstation pressurevisibilityair tempwater tempwave heightnotes
2019-Sep-16 22:10 168 18.3
2019-Sep-16 22:05 168 18.3
2019-Sep-16 22:00 168 18.3
2019-Sep-16 21:55 168 18.9
2019-Sep-16 21:50 168 19.4
2019-Sep-16 21:45 168 19.4
2019-Sep-16 21:40 168 19.4
2019-Sep-16 21:25 168 20.0
2019-Sep-16 21:20 168 20.0
2019-Sep-16 21:12 168 20.0
2019-Sep-16 21:05 168 20.0
2019-Sep-16 21:00 168 20.0
2019-Sep-16 20:50 168 20.0
2019-Sep-16 20:42 168 20.6
2019-Sep-16 20:40 168 20.6
2019-Sep-16 20:27 280 21.1
2019-Sep-16 20:25 280 21.1
2019-Sep-16 20:15 280 21.1
2019-Sep-16 20:10 280 21.7
2019-Sep-16 20:05 280 21.7
2019-Sep-16 20:00 280 21.7
2019-Sep-16 19:45 280 21.7
2019-Sep-16 19:35 294 21.7
2019-Sep-16 19:30 294 21.7
2019-Sep-16 19:25 298 21.7
2019-Sep-16 19:15 274 2 gusting 6 22.2
2019-Sep-16 19:01 299 0 gusting 4 22.8
2019-Sep-16 18:57 299 0 gusting 4 22.8
2019-Sep-16 18:55 325 22.8
2019-Sep-16 18:50 312 22.8
2019-Sep-16 18:45 336 22.8
2019-Sep-16 18:40 293 22.8
2019-Sep-16 18:35 298 22.8
2019-Sep-16 18:30 296 22.8
2019-Sep-16 18:20 310 3 gusting 8 23.3
2019-Sep-16 18:12 308 1 gusting 5 23.9
2019-Sep-16 18:10 327 2 gusting 6 23.9
2019-Sep-16 18:05 335 1 gusting 6 23.9
2019-Sep-16 18:00 332 2 gusting 6 23.9
2019-Sep-16 17:55 319 2 gusting 7 24.4
2019-Sep-16 17:45 321 1 gusting 7 24.4
2019-Sep-16 17:40 299 0 gusting 4 24.4
2019-Sep-16 17:35 326 24.4
2019-Sep-16 17:30 295 3 gusting 6 25.0
2019-Sep-16 17:25 301 2 gusting 6 25.0
2019-Sep-16 17:15 294 3 gusting 8 25.6
2019-Sep-16 17:10 299 1 gusting 7 25.6
2019-Sep-16 17:05 295 2 gusting 6 25.6
2019-Sep-16 17:00 297 3 gusting 7 26.1
2019-Sep-16 16:50 310 2 gusting 7 26.7
2019-Sep-16 16:45 316 4 gusting 8 26.7
2019-Sep-16 16:40 296 4 gusting 8 26.7
2019-Sep-16 16:30 328 4 gusting 10 27.2
2019-Sep-16 16:25 297 2 gusting 6 27.8
2019-Sep-16 16:15 329 4 gusting 7 27.8
2019-Sep-16 16:10 305 5 gusting 8 27.8
2019-Sep-16 16:00 334 4 gusting 7 27.8
2019-Sep-16 15:55 300 0 gusting 10 28.3
2019-Sep-16 15:50 305 3 gusting 10 28.3
2019-Sep-16 15:42 285 5 gusting 6 28.3
2019-Sep-16 15:35 290 6 gusting 10 28.3
2019-Sep-16 15:30 314 6 gusting 11 28.3
2019-Sep-16 15:25 307 4 gusting 11 28.3
2019-Sep-16 15:20 304 5 gusting 11 28.9
2019-Sep-16 15:15 302 6 gusting 13 28.9
2019-Sep-16 15:05 303 5 gusting 11 28.9
2019-Sep-16 15:00 307 5 gusting 11 28.9
2019-Sep-16 14:55 325 3 gusting 8 28.9
2019-Sep-16 14:50 314 5 gusting 13 28.9
2019-Sep-16 14:45 314 6 gusting 11 28.9
2019-Sep-16 14:40 307 5 gusting 13 29.4
2019-Sep-16 14:27 302 6 gusting 8 29.4
2019-Sep-16 14:25 322 6 gusting 14 29.4
2019-Sep-16 14:20 335 7 gusting 13 30.0
2019-Sep-16 14:15 310 6 gusting 11 30.0
2019-Sep-16 14:10 313 6 gusting 11 30.0
2019-Sep-16 14:00 336 6 gusting 12 30.6
2019-Sep-16 13:55 348 6 gusting 10 30.6
2019-Sep-16 13:50 313 4 gusting 10 30.6
2019-Sep-16 13:45 309 4 gusting 12 30.6
2019-Sep-16 13:40 292 5 gusting 11 30.6
2019-Sep-16 13:27 338 6 gusting 7 31.1
2019-Sep-16 13:25 316 6 gusting 13 31.1
2019-Sep-16 13:15 322 4 gusting 10 31.1
2019-Sep-16 13:05 301 6 gusting 11 31.7
2019-Sep-16 13:00 321 6 gusting 11 32.2
2019-Sep-16 12:55 290 0 gusting 7 32.2
2019-Sep-16 12:50 279 2 gusting 7 32.2
2019-Sep-16 12:42 270 2 gusting 6 31.7
2019-Sep-16 12:35 281 2 gusting 6 31.7
2019-Sep-16 12:25 198 4 gusting 7 31.7
2019-Sep-16 12:20 218 1 gusting 7 32.2
2019-Sep-16 12:15 207 32.2
2019-Sep-16 12:10 292 32.8
2019-Sep-16 12:05 288 4 gusting 7 32.8
2019-Sep-16 11:53 290 1 gusting 5 32.8
2019-Sep-16 11:50 269 2 gusting 6 32.8
2019-Sep-16 11:45 304 4 gusting 8 32.8
2019-Sep-16 11:40 181 33.3
2019-Sep-16 11:35 349 0 gusting 7 33.3
2019-Sep-16 11:30 253 2 gusting 6 33.3
2019-Sep-16 11:25 302 33.3
2019-Sep-16 11:20 272 1 gusting 5 32.8
2019-Sep-16 11:15 345 32.2
2019-Sep-16 11:10 158 0 gusting 4 32.2
2019-Sep-16 11:05 203 1 gusting 6 31.7
2019-Sep-16 10:55 268 1 gusting 7 32.2
2019-Sep-16 10:50 179 32.2
2019-Sep-16 10:45 261 31.7
2019-Sep-16 10:40 331 31.7
2019-Sep-16 10:30 280 31.7
2019-Sep-16 10:25 301 31.7
2019-Sep-16 10:10 335 31.7
2019-Sep-16 10:05 346 31.7
2019-Sep-16 10:00 353 30.6
2019-Sep-16 09:53 008 29.4
2019-Sep-16 09:50 157 29.4
2019-Sep-16 09:45 157 1 gusting 5 29.4
2019-Sep-16 09:40 173 29.4
2019-Sep-16 09:30 026 29.4
2019-Sep-16 09:25 027 29.4
2019-Sep-16 09:15 206 28.9
2019-Sep-16 09:10 276 28.3
2019-Sep-16 09:05 284 27.8
2019-Sep-16 09:00 181 27.2
2019-Sep-16 08:53 187 26.7
2019-Sep-16 08:50 189 26.7
2019-Sep-16 08:45 128 26.7
2019-Sep-16 08:40 182 26.1
2019-Sep-16 08:35 163 25.6
2019-Sep-16 08:30 163 25.0
2019-Sep-16 08:25 163 24.4
2019-Sep-16 08:20 163 24.4
2019-Sep-16 08:15 179 23.9
2019-Sep-16 08:08 252 23.9
2019-Sep-16 08:05 255 23.3
2019-Sep-16 07:55 225 22.8
2019-Sep-16 07:50 169 22.2
2019-Sep-16 07:40 357 22.2
2019-Sep-16 07:35 357 21.7
2019-Sep-16 07:30 357 21.1
2019-Sep-16 07:25 357 21.1
2019-Sep-16 07:20 357 20.6
2019-Sep-16 07:15 357 20.0
2019-Sep-16 07:10 357 19.4
2019-Sep-16 07:05 357 18.9
2019-Sep-16 07:00 357 18.3
2019-Sep-16 06:55 357 17.8
2019-Sep-16 06:50 357 17.2
2019-Sep-16 06:45 357 16.7
2019-Sep-16 06:38 357 16.7
2019-Sep-16 06:35 357 16.7
2019-Sep-16 06:30 357 16.7
2019-Sep-16 06:23 357 16.1
2019-Sep-16 06:20 357 16.1
2019-Sep-16 06:15 357 16.1
2019-Sep-16 06:10 357 15.6
2019-Sep-16 06:05 357 15.6
2019-Sep-16 06:00 357 15.6
2019-Sep-16 05:55 357 15.6
2019-Sep-16 05:50 357 15.6
2019-Sep-16 05:40 357 15.6
2019-Sep-16 05:35 357 15.6
2019-Sep-16 05:25 357 15.0
2019-Sep-16 05:20 357 15.0
2019-Sep-16 05:15 357 15.0
2019-Sep-16 05:10 357 15.6
2019-Sep-16 05:05 357 15.6
2019-Sep-16 05:00 357 15.0
2019-Sep-16 04:53 357 15.6
2019-Sep-16 04:50 357 15.0
2019-Sep-16 04:38 357 15.0
2019-Sep-16 04:35 357 15.0
2019-Sep-16 04:25 357 15.0
2019-Sep-16 04:20 357 15.0
2019-Sep-16 04:15 357 15.6
2019-Sep-16 04:10 357 15.6
2019-Sep-16 04:05 357 15.6
2019-Sep-16 04:00 357 16.1
2019-Sep-16 03:55 357 15.6
2019-Sep-16 03:50 357 15.6
2019-Sep-16 03:45 357 15.6
2019-Sep-16 03:38 357 15.6
2019-Sep-16 03:35 357 15.6
2019-Sep-16 03:30 357 15.6
2019-Sep-16 03:25 357 15.6
2019-Sep-16 03:15 357 15.6
2019-Sep-16 03:10 357 15.6
2019-Sep-16 03:05 357 16.1
2019-Sep-16 02:55 357 16.1
2019-Sep-16 02:40 357 16.1
2019-Sep-16 02:30 357 16.7
2019-Sep-16 02:23 357 16.7
2019-Sep-16 02:15 357 16.7
2019-Sep-16 02:10 357 16.7
2019-Sep-16 02:00 357 16.7
2019-Sep-16 01:55 357 16.7
2019-Sep-16 01:38 357 17.2
2019-Sep-16 01:35 357 17.2
2019-Sep-16 01:30 357 17.2
2019-Sep-16 01:23 357 17.2
2019-Sep-16 01:20 357 17.2
2019-Sep-16 01:15 357 17.2
2019-Sep-16 01:08 357 17.8
2019-Sep-16 01:05 357 17.8
2019-Sep-16 00:55 357 17.8
2019-Sep-16 00:45 357 17.8
2019-Sep-16 00:38 357 17.8
2019-Sep-16 00:35 357 17.8
2019-Sep-16 00:25 357 17.8
2019-Sep-16 00:20 357 17.8
2019-Sep-16 00:15 357 17.8
2019-Sep-16 00:08 357 18.3
2019-Sep-16 00:05 357 18.3
2019-Sep-16 00:00 357 18.3
2019-Sep-15 23:55 357 18.3
2019-Sep-15 23:50 357 18.3
2019-Sep-15 23:45 357 18.3
2019-Sep-15 23:40 357 18.3
2019-Sep-15 23:35 357 18.3
2019-Sep-15 23:30 357 18.3
2019-Sep-15 23:25 357 18.3
2019-Sep-15 23:20 357 18.3
2019-Sep-15 23:10 357 18.9
2019-Sep-15 23:05 357 19.4
2019-Sep-15 23:00 357 19.4
2019-Sep-15 22:55 357 19.4
2019-Sep-15 22:45 357 19.4
2019-Sep-15 22:40 357 19.4
2019-Sep-15 22:35 357 19.4
2019-Sep-15 22:30 357 19.4
2019-Sep-15 22:25 357 19.4
2019-Sep-15 22:20 357 19.4
2019-Sep-15 22:08 357 20.0
2019-Sep-15 22:05 357 20.0
2019-Sep-15 22:00 357 20.0
2019-Sep-15 21:53 357 20.0
2019-Sep-15 21:45 357 20.0
2019-Sep-15 21:40 357 20.0
2019-Sep-15 21:35 357 20.0
2019-Sep-15 21:30 357 20.6
2019-Sep-15 21:25 357 20.6
2019-Sep-15 21:20 233 20.6
2019-Sep-15 21:15 233 20.6
2019-Sep-15 21:08 232 20.6
2019-Sep-15 21:05 232 20.6
2019-Sep-15 21:00 232 20.6
2019-Sep-15 20:53 232 20.6
2019-Sep-15 20:45 232 20.6
2019-Sep-15 20:40 232 21.1
2019-Sep-15 20:30 238 21.7
2019-Sep-15 20:25 238 21.7
2019-Sep-15 20:20 238 21.7
2019-Sep-15 20:15 238 21.7
2019-Sep-15 20:10 234 21.7
2019-Sep-15 20:05 234 21.7
2019-Sep-15 20:00 234 21.7
2019-Sep-15 19:53 234 22.2
2019-Sep-15 19:50 234 22.2
2019-Sep-15 19:45 234 22.2
2019-Sep-15 19:40 268 22.2
2019-Sep-15 19:35 268 22.8
2019-Sep-15 19:23 308 22.8
2019-Sep-15 19:20 308 22.8
2019-Sep-15 19:15 309 22.8
2019-Sep-15 19:10 318 22.8
2019-Sep-15 19:05 335 22.8
2019-Sep-15 18:55 325 23.3
2019-Sep-15 18:45 300 23.3
2019-Sep-15 18:40 301 23.3
2019-Sep-15 18:35 321 23.3
2019-Sep-15 18:30 297 23.3
2019-Sep-15 18:25 324 23.9
2019-Sep-15 18:15 311 23.9
2019-Sep-15 18:10 312 23.9
2019-Sep-15 18:05 328 23.9
2019-Sep-15 17:55 302 3 gusting 7 24.4
2019-Sep-15 17:50 309 4 gusting 8 24.4
2019-Sep-15 17:45 321 2 gusting 7 24.4
2019-Sep-15 17:40 314 4 gusting 8 25.0
2019-Sep-15 17:35 296 0 gusting 6 25.0
2019-Sep-15 17:30 309 1 gusting 6 25.6
2019-Sep-15 17:25 308 0 gusting 6 25.6
2019-Sep-15 17:10 320 26.1
2019-Sep-15 17:05 314 0 gusting 6 26.1
2019-Sep-15 16:53 299 4 gusting 5 26.1
2019-Sep-15 16:50 287 4 gusting 7 26.1
2019-Sep-15 16:45 300 1 gusting 6 26.7
2019-Sep-15 16:40 296 4 gusting 8 26.7
2019-Sep-15 16:35 296 1 gusting 8 26.7
2019-Sep-15 16:30 293 4 gusting 6 27.2
2019-Sep-15 16:25 310 2 gusting 6 27.2
2019-Sep-15 16:20 313 3 gusting 7 27.2
2019-Sep-15 16:15 313 2 gusting 6 27.8
2019-Sep-15 16:10 310 3 gusting 8 27.8
2019-Sep-15 16:00 294 3 gusting 6 28.3
2019-Sep-15 15:55 319 1 gusting 6 28.3
2019-Sep-15 15:45 301 0 gusting 6 28.3
2019-Sep-15 15:40 276 28.3
2019-Sep-15 15:35 284 2 gusting 6 28.3
2019-Sep-15 15:30 290 3 gusting 6 28.9
2019-Sep-15 15:25 298 0 gusting 6 28.9
2019-Sep-15 15:15 303 28.9
2019-Sep-15 15:10 308 28.9
2019-Sep-15 15:00 283 28.9
2019-Sep-15 14:55 285 4 gusting 7 28.9
2019-Sep-15 14:50 269 1 gusting 6 28.9
2019-Sep-15 14:45 216 28.9
2019-Sep-15 14:38 206 29.4
2019-Sep-15 14:35 211 2 gusting 6 29.4
2019-Sep-15 14:23 223 29.4
2019-Sep-15 14:20 225 0 gusting 6 29.4
2019-Sep-15 14:15 190 29.4
2019-Sep-15 14:10 239 29.4
2019-Sep-15 14:05 205 29.4
2019-Sep-15 14:00 247 0 gusting 6 29.4
2019-Sep-15 13:53 201 29.4
2019-Sep-15 13:50 213 0 gusting 4 30.0
2019-Sep-15 13:45 215 30.0
2019-Sep-15 13:38 266 0 30.0
2019-Sep-15 13:35 275 1 gusting 6 30.6
2019-Sep-15 13:25 271 2 gusting 6 30.0
2019-Sep-15 13:20 295 30.0
2019-Sep-15 13:15 307 30.0
2019-Sep-15 13:10 264 1 gusting 6 30.0
2019-Sep-15 13:00 278 0 gusting 4 30.0
2019-Sep-15 12:55 190 2 gusting 6 30.0
2019-Sep-15 12:45 251 30.0
2019-Sep-15 12:40 230 2 gusting 5 29.4
2019-Sep-15 12:35 206 30.0
2019-Sep-15 12:25 209 30.0
2019-Sep-15 12:20 233 2 gusting 6 30.0
2019-Sep-15 12:15 204 30.0
2019-Sep-15 12:10 203 30.6
2019-Sep-15 12:05 201 2 gusting 7 30.6
2019-Sep-15 11:55 220 2 gusting 6 30.6
2019-Sep-15 11:50 340 30.0
2019-Sep-15 11:45 019 29.4
2019-Sep-15 11:40 180 2 gusting 6 29.4
2019-Sep-15 11:25 177 4 gusting 6 30.0
2019-Sep-15 11:20 139 2 gusting 7 30.0
2019-Sep-15 11:15 131 29.4
2019-Sep-15 11:10 181 1 gusting 4 28.9
2019-Sep-15 11:05 143 0 gusting 5 28.9
2019-Sep-15 10:55 144 0 gusting 6 29.4
2019-Sep-15 10:50 100 0 gusting 6 29.4
2019-Sep-15 10:40 103 30.0
2019-Sep-15 10:35 094 30.0
2019-Sep-15 10:25 331 30.0
2019-Sep-15 10:20 354 30.0
2019-Sep-15 10:10 344 30.0
2019-Sep-15 10:00 059 30.6
2019-Sep-15 09:55 30.0
2019-Sep-15 09:50 321 29.4
2019-Sep-15 09:45 216 28.9
2019-Sep-15 09:40 261 28.9
2019-Sep-15 09:23 233 1 gusting 3 27.2
2019-Sep-15 09:15 261 0 gusting 6 27.2
2019-Sep-15 09:10 310 26.7
2019-Sep-15 09:05 266 0 gusting 6 26.1
2019-Sep-15 09:00 253 25.6
2019-Sep-15 08:55 294 0 gusting 5 25.6
2019-Sep-15 08:50 305 25.0
2019-Sep-15 08:45 252 25.0
2019-Sep-15 08:40 254 25.0
2019-Sep-15 08:30 119 24.4
2019-Sep-15 08:25 119 24.4
2019-Sep-15 08:20 119 23.9
2019-Sep-15 08:15 119 23.9
2019-Sep-15 08:10 119 22.8
2019-Sep-15 08:00 119 22.2
2019-Sep-15 07:55 119 22.2
2019-Sep-15 07:50 119 21.7
2019-Sep-15 07:45 119 21.7
2019-Sep-15 07:40 119 21.1
2019-Sep-15 07:30 119 20.0
2019-Sep-15 07:25 119 20.0
2019-Sep-15 07:20 119 19.4
2019-Sep-15 07:15 119 18.9
2019-Sep-15 07:10 119 18.3
2019-Sep-15 06:53 119 17.8
2019-Sep-15 06:45 119 17.2
2019-Sep-15 06:38 119 16.7
2019-Sep-15 06:35 119 16.7
2019-Sep-15 06:25 119 16.1
2019-Sep-15 06:20 119 16.1
2019-Sep-15 06:15 119 16.1
2019-Sep-15 06:10 119 15.6
2019-Sep-15 06:00 119 15.6
2019-Sep-15 05:53 119 15.0
2019-Sep-15 05:50 119 15.0
2019-Sep-15 05:45 119 15.0
2019-Sep-15 05:38 119 15.0
2019-Sep-15 05:35 119 15.0
2019-Sep-15 05:25 119 15.0
2019-Sep-15 05:20 119 15.0
2019-Sep-15 05:08 119 15.0
2019-Sep-15 05:05 119 15.0
2019-Sep-15 05:00 119 15.0
2019-Sep-15 04:53 119 15.0
2019-Sep-15 04:50 119 15.0
2019-Sep-15 04:45 119 15.0
2019-Sep-15 04:40 119 15.0
2019-Sep-15 04:35 119 15.0
2019-Sep-15 04:30 119 15.0
2019-Sep-15 04:25 119 15.0
2019-Sep-15 04:20 119 15.0
2019-Sep-15 04:15 119 15.0
2019-Sep-15 04:08 119 15.0
2019-Sep-15 04:00 119 15.6
2019-Sep-15 03:53 119 15.6
2019-Sep-15 03:45 119 15.6
2019-Sep-15 03:40 119 15.6
2019-Sep-15 03:35 119 15.6
2019-Sep-15 03:23 119 16.1
2019-Sep-15 03:15 119 16.1
2019-Sep-15 03:10 119 16.1
2019-Sep-15 02:55 119 16.1
2019-Sep-15 02:50 119 16.1
2019-Sep-15 02:45 119 16.1
2019-Sep-15 02:40 119 16.1
2019-Sep-15 02:35 119 16.1
2019-Sep-15 02:25 119 16.1
2019-Sep-15 02:15 119 16.7
2019-Sep-15 02:10 119 16.7
2019-Sep-15 01:53 119 16.7
2019-Sep-15 01:45 119 16.7
2019-Sep-15 01:38 119 16.7
2019-Sep-15 01:30 119 16.7
2019-Sep-15 01:25 119 16.7
2019-Sep-15 01:20 119 17.2
2019-Sep-15 01:10 119 17.2
2019-Sep-15 01:05 119 17.2
2019-Sep-15 01:00 119 17.2
2019-Sep-15 00:55 119 17.2
2019-Sep-15 00:38 131 17.8
2019-Sep-15 00:35 273 17.8
2019-Sep-15 00:30 273 17.8
2019-Sep-15 00:25 273 17.8
2019-Sep-15 00:20 273 18.3
2019-Sep-15 00:15 273 18.3
2019-Sep-15 00:10 273 18.3
2019-Sep-15 00:00 272 18.3
2019-Sep-14 23:53 300 18.3
2019-Sep-14 23:50 300 18.3
2019-Sep-14 23:38 18.9
2019-Sep-14 23:30 18.9
2019-Sep-14 23:25 18.9
2019-Sep-14 23:20 18.9
2019-Sep-14 23:14 18.9
2019-Sep-14 23:10 18.9
2019-Sep-14 23:05 18.9
2019-Sep-14 22:59 19.4
2019-Sep-14 22:55 19.4
2019-Sep-14 22:45 19.4
2019-Sep-14 22:40 19.4
2019-Sep-14 22:30 20.0
2019-Sep-14 22:29 20.0
2019-Sep-14 22:25 20.0
2019-Sep-14 22:20 20.0
2019-Sep-14 22:15 20.0
2019-Sep-14 22:10 20.6
2019-Sep-14 22:05 20.6